Location: Newark
(85.1667°S, 168.5000°E)
Time: 22:09:14
(UTC+00:00)

Envisat - Visible Passes

Search period start: 21 August 2019 00:00
Search period end: 31 August 2019 00:00
Orbit: 764 x 766 km, 98.1° (Epoch: 21 August)

Date Brightness Start Highest point End Pass type
(mag) Time Alt. Az. Time Alt. Az. Time Alt. Az.
21 Aug 4.2 00:39:31 10° WSW 00:43:26 21° SSW 00:47:21 10° SE visible
21 Aug 4.2 02:20:19 10° SW 02:24:15 21° SSE 02:28:10 10° ESE visible
21 Aug 4.1 04:00:51 10° SSW 04:04:59 23° SE 04:09:08 10° E visible
21 Aug 3.9 05:41:07 10° S 05:45:34 28° ESE 05:50:02 10° ENE visible
21 Aug 3.6 07:21:09 10° SSE 07:25:55 35° E 07:30:40 10° NNE visible
21 Aug 3.3 09:01:01 10° SE 09:06:00 44° ENE 09:10:58 10° N visible
21 Aug 3.1 10:40:44 10° ESE 10:45:51 54° NE 10:50:57 10° NW visible
21 Aug 3.0 12:20:22 10° E 12:25:32 61° NNE 12:30:42 10° WNW visible
21 Aug 3.0 13:59:59 10° ENE 14:05:09 62° N 14:10:19 10° W visible
21 Aug 3.1 15:39:40 10° NE 15:44:48 57° NNW 15:49:56 10° WSW visible
21 Aug 3.2 17:19:32 10° NNE 17:24:34 48° WNW 17:29:37 10° SW visible
21 Aug 3.5 18:59:43 10° NNW 19:04:34 38° W 19:09:26 10° SSW visible
21 Aug 3.8 20:40:15 10° NW 20:44:49 30° WSW 20:49:24 10° SSW visible
21 Aug 4.0 22:21:04 10° WNW 22:25:19 25° SW 22:29:34 10° S visible
22 Aug 4.2 00:02:03 10° WSW 00:06:01 22° SSW 00:10:00 10° SSE visible
22 Aug 4.2 01:42:56 10° SW 01:46:50 21° S 01:50:43 10° SE visible
22 Aug 4.2 03:23:34 10° SSW 03:27:37 22° SSE 03:31:39 10° E visible
22 Aug 4.0 05:03:55 10° S 05:08:16 26° SE 05:12:36 10° ENE visible
22 Aug 3.7 06:44:03 10° SSE 06:48:42 32° E 06:53:21 10° NE visible
22 Aug 3.4 08:23:58 10° SE 08:28:53 41° ENE 08:33:47 10° N visible
22 Aug 3.2 10:03:44 10° SE 10:08:48 50° NE 10:13:52 10° NNW visible
22 Aug 3.0 11:43:24 10° ESE 11:48:33 59° NNE 11:53:41 10° NW visible
22 Aug 3.0 13:23:00 10° E 13:28:10 62° N 13:33:20 10° W visible
22 Aug 3.0 15:02:39 10° ENE 15:07:48 59° NNW 15:12:57 10° WSW visible
22 Aug 3.2 16:42:26 10° NNE 16:47:31 51° NW 16:52:36 10° SW visible
22 Aug 3.4 18:22:30 10° N 18:27:25 42° WNW 18:32:21 10° SW visible
22 Aug 3.7 20:02:53 10° NNW 20:07:34 33° W 20:12:16 10° SSW visible
22 Aug 4.0 21:43:37 10° WNW 21:47:59 26° WSW 21:52:21 10° S visible
22 Aug 4.2 23:24:34 10° W 23:28:37 22° SSW 23:32:41 10° SSE visible
23 Aug 4.2 01:05:30 10° SW 01:09:25 21° S 01:13:18 10° SE visible
23 Aug 4.2 02:46:16 10° SSW 02:50:13 21° SSE 02:54:11 10° ESE visible
23 Aug 4.1 04:26:43 10° S 04:30:56 24° SE 04:35:08 10° E visible
23 Aug 3.8 06:06:54 10° S 06:11:27 30° ESE 06:15:59 10° NE visible
23 Aug 3.5 07:46:53 10° SSE 07:51:44 37° E 07:56:33 10° NNE visible
23 Aug 3.3 09:26:43 10° SE 09:31:44 47° ENE 09:36:45 10° NNW visible
23 Aug 3.1 11:06:25 10° ESE 11:11:32 56° NE 11:16:39 10° NW visible
23 Aug 3.0 12:46:02 10° E 12:51:12 62° N 12:56:22 10° WNW visible
23 Aug 3.0 14:25:39 10° ENE 14:30:49 61° NNW 14:35:59 10° W visible
23 Aug 3.1 16:05:22 10° NE 16:10:29 55° NW 16:15:36 10° WSW visible
23 Aug 3.3 17:45:19 10° N 17:50:19 45° WNW 17:55:19 10° SW visible
23 Aug 3.6 19:25:35 10° NNW 19:30:22 36° W 19:35:10 10° SSW visible
23 Aug 3.9 21:06:12 10° NW 21:10:41 28° WSW 21:15:11 10° S visible
23 Aug 4.1 22:47:05 10° W 22:51:14 24° SW 22:55:25 10° SSE visible
24 Aug 4.2 00:28:03 10° WSW 00:31:59 21° SSW 00:35:55 10° SE visible
24 Aug 4.2 02:08:53 10° SW 02:12:48 21° S 02:16:42 10° ESE visible
24 Aug 4.1 03:49:27 10° SSW 03:53:34 23° SE 03:57:40 10° E visible
24 Aug 3.9 05:29:45 10° S 05:34:10 27° ESE 05:38:35 10° ENE visible
24 Aug 3.6 07:09:48 10° SSE 07:14:32 34° E 07:19:16 10° NNE visible
24 Aug 3.3 08:49:41 10° SE 08:54:39 43° ENE 08:59:36 10° N visible
24 Aug 3.1 10:29:25 10° ESE 10:34:31 53° NE 10:39:37 10° NNW visible
24 Aug 3.0 12:09:03 10° E 12:14:13 60° NNE 12:19:23 10° WNW visible
24 Aug 3.0 13:48:40 10° ENE 13:53:50 62° N 13:59:00 10° W visible
24 Aug 3.1 15:28:21 10° NE 15:33:29 58° NNW 15:38:37 10° WSW visible
24 Aug 3.2 17:08:11 10° NNE 17:13:14 49° NW 17:18:18 10° SW visible
24 Aug 3.5 18:48:20 10° N 18:53:12 39° W 18:58:05 10° SSW visible
24 Aug 3.8 20:28:49 10° NW 20:33:25 31° WSW 20:38:02 10° SSW visible
24 Aug 4.0 22:09:37 10° WNW 22:13:53 25° SW 22:18:11 10° S visible
24 Aug 4.2 23:50:35 10° WSW 23:54:35 22° SSW 23:58:35 10° SSE visible
25 Aug 4.2 01:31:30 10° SW 01:35:23 21° S 01:39:16 10° SE visible
25 Aug 4.2 03:12:10 10° SSW 03:16:11 22° SSE 03:20:12 10° ESE visible
25 Aug 4.0 04:52:33 10° S 04:56:51 25° SE 05:01:09 10° ENE visible
25 Aug 3.7 06:32:41 10° SSE 06:37:19 31° ESE 06:41:56 10° NE visible
25 Aug 3.5 08:12:37 10° SSE 08:17:31 40° ENE 08:22:24 10° N visible
25 Aug 3.2 09:52:24 10° SE 09:57:28 49° NE 10:02:31 10° NNW visible
25 Aug 3.1 11:32:05 10° ESE 11:37:13 58° NNE 11:42:22 10° NW visible
25 Aug 3.0 13:11:41 10° E 13:16:52 62° N 13:22:02 10° WNW visible
25 Aug 3.0 14:51:20 10° ENE 14:56:28 60° NNW 15:01:38 10° WSW visible
25 Aug 3.2 16:31:06 10° NNE 16:36:11 52° NW 16:41:17 10° WSW visible
25 Aug 3.4 18:11:08 10° N 18:16:04 43° WNW 18:21:02 10° SW visible
25 Aug 3.7 19:51:28 10° NNW 19:56:12 34° W 20:00:55 10° SSW visible
25 Aug 3.9 21:32:10 10° WNW 21:36:35 27° WSW 21:40:59 10° S visible
25 Aug 4.1 23:13:06 10° W 23:17:11 23° SW 23:21:17 10° SSE visible
26 Aug 4.2 02:34:50 10° SSW 02:38:46 21° SSE 02:42:43 10° ESE visible
26 Aug 4.1 04:15:20 10° S 04:19:30 24° SE 04:23:41 10° E visible
26 Aug 3.8 05:55:33 10° S 06:00:03 29° ESE 06:04:34 10° NE visible
26 Aug 3.6 07:35:33 10° SSE 07:40:21 36° E 07:45:09 10° NNE visible
26 Aug 3.3 09:15:23 10° SE 09:20:24 46° ENE 09:25:24 10° NNW visible
26 Aug 3.1 10:55:06 10° ESE 11:00:13 55° NE 11:05:20 10° NW visible
26 Aug 3.0 12:34:43 10° E 12:39:53 61° NNE 12:45:03 10° WNW visible
26 Aug 3.0 14:14:20 10° ENE 14:19:30 62° NNW 14:24:40 10° W visible
26 Aug 3.1 15:54:02 10° NE 15:59:10 56° NW 16:04:17 10° WSW visible
26 Aug 3.3 17:33:58 10° NNE 17:38:58 46° WNW 17:43:59 10° SW visible
26 Aug 3.6 19:14:12 10° NNW 19:19:00 37° W 19:23:49 10° SSW visible
26 Aug 3.9 20:54:46 10° NW 20:59:17 29° WSW 21:03:49 10° S visible
26 Aug 4.1 22:35:38 10° W 22:39:49 24° SW 22:44:01 10° S visible
27 Aug 4.1 03:38:03 10° SSW 03:42:08 23° SSE 03:46:13 10° E visible
27 Aug 3.9 05:18:23 10° S 05:22:46 27° ESE 05:27:08 10° ENE visible
27 Aug 3.7 06:58:27 10° SSE 07:03:09 33° E 07:07:51 10° NNE visible
27 Aug 3.4 08:38:21 10° SE 08:43:18 42° ENE 08:48:14 10° N visible
27 Aug 3.2 10:18:05 10° ESE 10:23:11 52° NE 10:28:16 10° NNW visible
27 Aug 3.0 11:57:45 10° ESE 12:02:54 60° NNE 12:08:03 10° WNW visible
27 Aug 3.0 13:37:21 10° E 13:42:32 62° N 13:47:41 10° W visible
27 Aug 3.1 15:17:01 10° NE 15:22:09 58° NNW 15:27:18 10° WSW visible
27 Aug 3.2 16:56:50 10° NNE 17:01:54 50° NW 17:06:58 10° SW visible
27 Aug 3.5 18:36:57 10° N 18:41:51 40° WNW 18:46:45 10° SSW visible
27 Aug 3.8 20:17:24 10° NW 20:22:02 32° WSW 20:26:40 10° SSW visible
27 Aug 4.0 21:58:10 10° WNW 22:02:29 26° SW 22:06:48 10° S visible
28 Aug 4.0 04:41:10 10° S 04:45:26 25° SE 04:49:42 10° ENE visible
28 Aug 3.8 06:21:20 10° SSE 06:25:55 31° ESE 06:30:30 10° NE visible
28 Aug 3.5 08:01:17 10° SSE 08:06:09 39° E 08:11:01 10° NNE visible
28 Aug 3.2 09:41:05 10° SE 09:46:08 48° NE 09:51:10 10° NNW visible
28 Aug 3.1 11:20:46 10° ESE 11:25:54 57° NNE 11:31:02 10° NW visible
28 Aug 3.0 13:00:23 10° E 13:05:33 62° N 13:10:43 10° WNW visible
28 Aug 3.0 14:40:01 10° ENE 14:45:10 61° NNW 14:50:19 10° W visible
28 Aug 3.2 16:19:45 10° NE 16:24:51 53° NW 16:29:58 10° WSW visible
28 Aug 3.4 17:59:45 10° N 18:04:43 44° WNW 18:09:42 10° SW visible
28 Aug 3.7 19:40:04 10° NNW 19:44:49 35° W 19:49:34 10° SSW visible
28 Aug 3.9 21:20:44 10° WNW 21:25:10 28° WSW 21:29:37 10° S visible
29 Aug 4.1 04:03:55 10° SSW 04:08:05 23° SE 04:12:14 10° E visible
29 Aug 3.9 05:44:10 10° S 05:48:39 28° ESE 05:53:08 10° NE visible
29 Aug 3.6 07:24:12 10° SSE 07:28:58 35° E 07:33:45 10° NNE visible
29 Aug 3.3 09:04:03 10° SE 09:09:02 45° ENE 09:14:02 10° N visible
29 Aug 3.1 10:43:47 10° ESE 10:48:53 54° NE 10:54:00 10° NW visible
29 Aug 3.0 12:23:24 10° E 12:28:34 61° NNE 12:33:44 10° WNW visible
29 Aug 3.0 14:03:01 10° ENE 14:08:11 62° N 14:13:21 10° W visible
29 Aug 3.1 15:42:43 10° NE 15:47:50 57° NNW 15:52:58 10° WSW visible
29 Aug 3.3 17:22:36 10° NNE 17:27:38 47° WNW 17:32:39 10° SW visible
29 Aug 3.5 19:02:47 10° NNW 19:07:37 38° W 19:12:28 10° SSW visible
29 Aug 3.8 20:43:20 10° NW 20:47:53 30° WSW 20:52:27 10° S visible
30 Aug 4.0 05:07:00 10° S 05:11:21 26° SE 05:15:41 10° ENE visible
30 Aug 3.7 06:47:06 10° SSE 06:51:46 32° E 06:56:26 10° NE visible
30 Aug 3.4 08:27:00 10° SE 08:31:56 41° ENE 08:36:51 10° N visible
30 Aug 3.2 10:06:46 10° SE 10:11:51 51° NE 10:16:55 10° NNW visible
30 Aug 3.1 11:46:26 10° ESE 11:51:35 59° NNE 11:56:43 10° NW visible
30 Aug 3.0 13:26:03 10° E 13:31:13 62° N 13:36:23 10° W visible
30 Aug 3.1 15:05:41 10° NE 15:10:50 59° NNW 15:15:59 10° WSW visible
30 Aug 3.2 16:45:30 10° NNE 16:50:34 51° NW 16:55:39 10° SW visible
30 Aug 3.4 18:25:34 10° N 18:30:28 41° WNW 18:35:24 10° SW visible
30 Aug 3.7 20:05:59 10° NW 20:10:38 32° W 20:15:19 10° SSW visible
